Location: Acheville
(50.3840°N, 2.8827°E)
Time: 00:10:32
(UTC+00:00)

FENGYUN 1C DEB - Pass Details

Date: 03 February 2023
Orbit: 634 x 940 km, 98.3° (Epoch: 28 March)

Event Time Altitude Azimuth Distance (km) Brightness Sun altitude
Rises 18:12:04 0° 192° (SSW) 3,276 ? -14.1°
Reaches altitude 10° 18:14:42 10° 202° (SSW) 2,299 ? -14.5°
Maximum altitude 18:19:08 30° 264° (W) 1,276 ? -15.2°
Drops below altitude 10° 18:23:18 10° 326° (NW) 2,155 ? -15.9°
Sets 18:25:43 0° 337° (NNW) 3,038 ? -16.3°
